FENGYUN 1C DEB

Satellite information

Favourite Embed

Satellite Type and Status

DEBRISIN ORBIT

Key statistics

Satellite FENGYUN 1C DEB at a glance.

Uptime

9715

Days in orbit

Revolutions

≈ 14.7

Per day

Orbit

SSO

Sun Synchronous Orbit

Inclination

99.1

Latest

Satellite identification and parameters

Extended collection of information and parameters for FENGYUN 1C DEB.

Object identification

Identified? True

Debris? True

Object name: FENGYUN 1C DEB

International designator: 1999-025BPE

Object number (NORAD): 31296

Object ID (CCSDS): 31296

Country: PEOPLES REPUBLIC OF CHINA (PRC)

Current information (Y/N): Y

RCS size: SMALL

Orbital parameters

Period: 97.866 minutes

Inclination: 99.0657 deg

SMA: 7034.732 km

Apoapsis: 670.433 km

Periapsis: 642.761 km

RAAN: 260.8557 deg

Eccentricy: 0.00196682

Argument of periapsis: 217.9859 deg

Mean anomaly: 141.9959 deg

Mean motion: 14.71402174 rev/day

Mean motion (dot): 0.00038809 rev/day2

B* drag term: 0.0062242426 1/REarth

Two-line elements (TLE)

Creation date: Dec. 12, 2025, 10:14 a.m.

Reference frame: TEME

Reference center: EARTH

Epoch: Dec. 12, 2025, 12:52 a.m. UTC

TLE line 0: 0 FENGYUN 1C DEB

TLE line 1: 1 31296U 99025BPE 25346.03621029 .00038809 00000-0 62242-2 0 9995

TLE line 2: 2 31296 99.0657 260.8557 0019668 217.9859 141.9959 14.71402174973393

Live tracking on map

Real-time ground track for satellite FENGYUN 1C DEB.

In-orbit conjunctions

A list of the most updated potential collisions computed for object FENGYUN 1C DEB.

Target Orbit TCA Probability of collision Miss distance Type
PICOSAT 3 SSO 2025-10-26 02:18:57 0.0006007963 308.0 (m) PAYLOAD
CZ-6A DEB LEO 2025-02-09 20:59:04 0.000133153 718.0 (m) DEBRIS
COSMOS 2251 DEB LEO 2024-11-14 15:30:36 0.0001488114 890.0 (m) DEBRIS

Associated space launch

Chinese polar orbiting meteorological satellite

FENGYUN 1C DEB was lifted into orbit during the mission ‘Long March 4B | Feng Yun 1C’, on board a Long March 4B space rocket.

The launch took place on May 10, 1999, 1:33 a.m. from Launch Complex 7.

For more information about the launch, click the button.

Launch to space Long March 4B | Feng Yun 1C
Long March 4B | Feng Yun 1C

Agency: N/A

Status: Launch Successful

Launch date: May 10, 1999, 1:33 a.m. UTC

Rocket: Long March 4B

Launch pad: Launch Complex 7

Location: Taiyuan Satellite Launch Center, People's Republic of China

...

Latest news about this satellite

There are no fresh news available about this satellite. Check back as we update our databases every day.


Newsletter sign-up

Weekly statistics, charts and insights to help you stay on top of the space industry.